Regional Weather Roundup
Issued by NWS Grand Forks, ND

Home | Current Version | Previous Version | Text Only | Print | Product List | Glossary On
Versions: 1 2 3 4 5 6 7 8 9 10 11 12 13 14 15 16 17 18 19 20 21 22 23 24 25 26 27 28 29 30 31 32 33 34 35 36 37 38 39 40 41 42 43 44 45 46 47 48 49 50
000
ASUS43 KFGF 271131
RWRFGF
PRAIRIE TO PINES  WEATHER ROUNDUP
NATIONAL WEATHER SERVICE EASTERN NORTH DAKOTA/GRAND FORKS ND
500 AM CST TUE JAN 27 2015

 **SATELLITE DATA USED TO AUGMENT SKY COVER AT AUTOMATED STATIONS**
 *****  WEATHER ACROSS EASTERN NORTH DAKOTA  *****

CITY           SKY/WX    TMP DP  RH WIND       PRES   REMARKS
GRAND FORKS    FOG       25  24  96 S9        30.03F VSB 1/2 WCI  15
GRAND FRKS AFB CLOUDY    25  23  93 S5        30.03S FOG     WCI  19
DEVILS LAKE    MOCLDY    21  19  93 SE8       29.93F WCI  12
FARGO          FOG       27  25  92 SE7       30.05S VSB 1/2 WCI  19
WAHPETON ARPT  CLOUDY    28  27  93 SE6       30.06S VSB 1   WCI  22
$$

 ***** WEATHER ACROSS CENTRAL AND WESTERN NORTH DAKOTA  *****

CITY           SKY/WX    TMP DP  RH WIND       PRES   REMARKS
BISMARCK       PTCLDY    29  28  96 E8        29.93S WCI  21
MINOT          CLEAR     30  27  88 E3        29.85F
JAMESTOWN      CLEAR     25  24  96 S5        29.98S WCI  19
MINOT AFB      PTCLDY    27  27 100 SE6       29.85F WCI  21
GARRISON         N/A     29  27  92 SE5       29.87F WCI  24
WILLISTON      MOCLDY    28  26  92 CALM      29.84S
DICKINSON      MOCLDY    33  28  81 SW6       29.83F
HETTINGER      PTCLDY    29  26  89 CALM      29.89F
$$

 *****  OTHER AIRPORT OBSERVATIONS IN OUR AREA  *****

CITY           SKY/WX    TMP DP  RH WIND       PRES   REMARKS
WALHALLA         N/A     23  23 100 SE6       29.99R WCI  16
GRAFTON AIRPOR NOT AVBL
VALLEY CITY AR MIX PCPN  25  25 100 S7        30.00S VSB 1/2 WCI  17
CANDO          FAIR      25  25 100 S5        29.95R WCI  19
CAVALIER APRT  FOG       21  19  93 S9        30.02R VSB 3/4 WCI  11
GWINNER        MOSUNNY   30  30 100 SE5       30.04S
ROLLA          FAIR      28  28 100 SW12      29.92S WCI  18
 ***** THE ABOVE OBSERVATIONS ARE NON NWS ARE NOT QUALITY
       CONTROLLED AND MAY MIS-REPORT RAIN FOR SNOW...
$$

  *****  WEATHER ACROSS NORTHERN MINNESOTA  *****

CITY           SKY/WX    TMP DP  RH WIND       PRES   REMARKS
FLAG ISLAND    CLOUDY    21  21 100 S10       30.02F FOG     WCI  10
WARROAD        FOG       21  18  86 SW5       30.05R VSB 1   WCI  15
ROSEAU         FOG       21  18  86 S6        30.04S VSB 3/4 WCI  14
HALLOCK        FOG       25  21  86 SE9       30.03S VSB 1/2 WCI  15
THF RVR FALLS  CLOUDY    25  23  93 S5        30.04S VSB 1/4 WCI  19
BAUDETTE       CLOUDY    23  21  92 CALM      30.03S
WASKISH        CLOUDY    25  25 100 CALM      30.05S
CROOKSTON      FOG       25  25 100 S7        30.06R VSB 1/2 WCI  17
STEPHEN NDAWN    N/A     25  25 100 S8          N/A  WCI  16
GREENBUSH NDAW   N/A     23  23 100 S8          N/A  WCI  14
$$
  *****  WEATHER ACROSS CENTRAL AND WEST MINNESOTA  *****

CITY           SKY/WX    TMP DP  RH WIND       PRES   REMARKS
FOSSTON        FOG       23  21  93 SE3       30.05R VSB 3/4
BEMIDJI        CLOUDY    24  23  97 S5        30.04S FOG     WCI  18
PARK RAPIDS    CLOUDY    27  24  89 CALM      30.04R
ELBOW LAKE     CLOUDY    27  27 100 SE5       30.06R WCI  21
WADENA         CLOUDY    27  25  93 CALM      30.05S
DETROIT LAKES  FOG       27  27 100 S6        30.05S VSB 1/2 WCI  20
MOORHEAD       CLOUDY    27  27 100 SE6       30.06S FOG     WCI  20
FERGUS FALLS   FOG       27  27 100 SE5       30.09R VSB 1   WCI  21
MORRIS MN      CLOUDY    28  28 100 SE3       30.07R FOG
STAPLES        CLOUDY    27  25  93 CALM      30.05S
$$
  *****  WEATHER ELSEWHERE ACROSS MINNESOTA  *****

CITY           SKY/WX    TMP DP  RH WIND       PRES   REMARKS
DULUTH         CLOUDY    26  21  81 CALM      30.05R
INTRNTL FALLS  CLOUDY    22  20  92 W3        30.05S
ELY            CLOUDY    21  19  93 CALM      30.05R
CLOQUET        CLOUDY    27  21  80 N3        30.06S
WHEATON        CLOUDY    27  27 100 SE6       30.09R FOG     WCI  20
BRAINERD       CLOUDY    30  25  81 CALM      30.06R
HIBBING        CLOUDY    26  21  81 NE3       30.05R
ALEXANDRIA     CLOUDY    28  26  92 CALM      30.06R
SAINT CLOUD    CLOUDY    31  26  82 NE5       30.07R
MINNEAPOLIS    CLOUDY    33  25  72 N7        30.08R
$$

  *****  WEATHER ACROSS SOUTH DAKOTA  *****

CITY           SKY/WX    TMP DP  RH WIND       PRES   REMARKS
SIOUX FALLS    PTCLDY    25  24  96 CALM      30.05R
BROOKINGS      NOT AVBL
WATERTOWN      FOG       26  25  96 CALM      30.02S VSB 3/4
HURON          CLEAR     26  25  96 E6        30.02S WCI  19
SISSETON         N/A     28  28 100 S6        30.04S WCI  22
ABERDEEN       CLEAR     27  25  92 CALM      30.02F
MITCHELL       CLEAR     28  26  92 E5        30.04S WCI  23
PIERRE         CLEAR     30  27  88 SE8       29.94S WCI  22
MOBRIDGE       CLEAR     33  29  85 SE10      29.91F WCI  25
RAPID CITY     CLEAR     43  25  49 CALM      29.94F
$$

  *****  SOME WEATHER IN NEARBY STATES *****

CITY           SKY/WX    TMP DP  RH WIND       PRES   REMARKS
GLASGOW MT     MOCLDY    33  29  85 SE7       29.83S
GREAT FALLS MT CLOUDY    49  28  44 SW10      29.91S
CHEYENNE WY    CLEAR     49  18  29 W16       30.16F
SCOTTSBLUFF NE CLEAR     32  27  81 NW5       30.07F
OMAHA NE       CLEAR     29  28  96 CALM      30.09R
DES MOINES IA  CLEAR     33  29  85 N7        30.07R
DAVENPORT IA   CLOUDY    33  28  81 N10       30.03R WCI  25
CHICAGO IL     CLOUDY    27  24  89 N7        30.00R WCI  19
EAU CLAIRE WI  CLOUDY    27  22  81 NE5       30.08R WCI  22
LA CROSSE WI   CLOUDY    31  23  72 N6        30.08R
$$

  *****  SOME NATIONAL WEATHER *****

CITY           SKY/WX    TMP DP  RH WIND       PRES   REMARKS
LA GUARDIA NY  LGT SNOW  21  15  78 N25G33    29.65S WCI   4
RALEIGH NC     CLOUDY    34  27  75 VRB6      29.76R
ATLANTA GA     MOCLDY    33  28  81 W8        29.86S
NEW ORLEANS LA PTCLDY    48  40  73 SW6       30.06F
OKLAHOMA CITY  CLEAR     46  33  60 N7        30.10R
ALBUQUERQUE NM PTCLDY    38  27  64 N3        30.32F
SALT LAKE CITY PTCLDY    30  29  96 CALM      30.19R FOG
LOS ANGELES CA MOCLDY    56  53  90 CALM      30.13R
BOISE ID       MOCLDY    28  28 100 CALM      30.10S FOG
SEATTLE WA     CLOUDY    50  48  93 S6        30.00R
$$

*** WEATHER ACROSS MANITOBA...SASKATCHEWAN AND ONTARIO ***
                ***ONTARIO***

CITY           SKY/WX    TMP DP  RH WIND       PRES   REMARKS
GERALDTON      FLURRIES  14  12  92 S2        30.07S
THUNDER BAY    FLURRIES  21  19  93 W5        30.10R WCI  15
SIOUX LOOKOUT  FLURRIES  19  18  93 W5        30.02S WCI  13
TORONTO        FLURRIES  10   5  79 N10       30.01S WCI  -3
BIG TROUT LK   CLOUDY    14  12  92 SW8       29.88S WCI   3
PICKLE LAKE    CLOUDY    18  16  93 SW6       29.98  WCI   9
DRYDEN         CLOUDY    19  18  93 W5        30.02S WCI  13
KENORA         FOG       19  18  93 SW8       30.01S VSB 1/8 WCI   9
$$
                *** MANITOBA***

CITY           SKY/WX    TMP DP  RH WIND       PRES   REMARKS
BRANDON        MOCLDY    23  21  93 NW5       29.90S WCI  17
DAUPHIN        MOCLDY    28  27  93 S2        29.85S
ISLAND LAKE    FLURRIES  19  18  93 S8        29.85F WCI   9
PILOT MOUND      N/A     27  27 100 S8          N/A  WCI  18
THE PAS        CLEAR     18  16  93 W5        29.78S WCI  11
THOMPSON       LGT SNOW  21  19  93 SW7       29.74F FOG     WCI  13
WINNIPEG       FOG       21  19  93 S15       29.99F VSB 3/4 WCI   8
LYNN LAKE      CLEAR      7   3  85 N17G23    29.81R WCI -12
CHURCHILL      FLURRIES  14  12  92 NW22G29   29.64R WCI  -4
GILLAM         FLURRIES  18  16  93 SW13      29.70S WCI   4
$$
                ***SASKATCHEWAN***

CITY           SKY/WX    TMP DP  RH WIND       PRES   REMARKS
ESTEVAN        PTCLDY    25  23  93 E8        29.82S WCI  16
KINDERSLEY     PTCLDY    25  23  93 S2        29.76S
LLOYDMINSTER   NOT AVBL
PRINCE ALBERT  CLOUDY    28  27  93 CALM      29.81S
REGINA         CLEAR     27  27 100 E10       29.77F WCI  17
YORKTON        CLOUDY    30  27  86 SE8       29.81F WCI  23
N. BATTLEFORD  MOCLDY    30  28  93 CALM      29.81F
LA RONGE       PTCLDY    25  23  93 N7        29.83R FOG     WCI  17
SASKATOON      MOCLDY    30  28  93 NE6       29.80F WCI  24
SWIFT CURRENT  CLEAR     39  32  75 SW14      29.72F
$$
NOTE: THESE ARE AUTOMATED STATIONS WITH LIMITED QUALITY CONTROL
      "FAIR" INDICATES FEW OR NO CLOUDS BELOW 12,000 FEET WITH NO
      SIGNIFICANT WEATHER AND/OR OBSTRUCTIONS TO VISIBILITY.
      SKY/WX - SKY CONDITION AND SIGNIFICANT WEATHER.
      TMP - AIR TEMPERATURE.    DP   - DEWPOINT TEMPERATURE.
      RH  - RELATIVE HUMIDITY.  PRES - PRESSURE.
      HX  - HEAT INDEX.         WCI  - WIND CHILL INDEX.
$



USA.gov is the U.S. government's official web portal to all federal, state and local government web resources and services.